SCP
0 0 0 0 0 0 0 0 0 0 0 0 0 0 0 0 0 0 0 0 0 0 0 0 0 0 0 0 0 0 0 0 0 0 0 0 0 0 0 0 0 0 0
0 0 0 0 0 0 0 0 0 0 0 0 0 0 0 0 0 0 0 0 0 0 0 0 0 0 0 0 0 0 0 0 0 0 0 0 0 0 0 0 0 0 0
0 0 0 0 0 0 0 0 0 0 0 0 0 0 0 0 0 0 0 0 0 0 0 0 0 0 0 0 0 0 0 0 0 0 0 0 0 0 0 0 0 0 0
0 0 0 0 0 0 0 0 0 0 0 0 0 0 0 0 0 0 0 0 0 0 0 0 0 0 0 0 0 0 0 0 0 0 0 0 0 0 0 0 0 0 0
0 0 0 0 0 0 0 0 0 0 0 0 0 0 0 0 0 0 0 0 0 0 0 0 0 0 0 0 0 0 0 0 0 0 0 0 0 0 0 0 0 0 0
0 0 0 0 0 0 0 0 0 0 0 0 0 0 0 0 0 0 0 0 0 0 0 0 0 0 0 0 0 0 0 0 0 0 0 0 0 0 0 0 0 0 0
0 0 0 0 0 0 0 0 0 0 0 0 0 0 0 0 0 0 0 0 0 0 0 0 0 0 0 0 0 0 0 0 0 0 0 0 0 0 0 0 0 0 0
0 0 0 0 0 0 0 0 0 0 0 0 0 0 0 0 0 0 0 0 0 0 0 0 0 0 0 0 0 0 0 0 0 0 0 0 0 0 0 0 0 0 0
0 0 0 0 0 0 0 0 0 0 0 0 0 0 0 0 0 0 0 0 0 0 0 0 0 0 0 0 0 0 0 0 0 0 0 0 0 0 0 0 0 0 0
0 0 0 0 0 0 0 0 0 0 0 0 0 0 0 0 0 0 0 0 0 0 0 0 0 0 0 0 0 0 0 0 0 0 0 0 0 0 0 0 0 0 0
0 0 0 0 0 0 0 0 0 0 0 0 0 0 0 0 0 0 0 0 0 0 0 0 0 0 0 0 0 0 0 0 0 0 0 0 0 0 0 0 0 0 0
0 0 0 0 0 0 0 0 0 0 0 0 0 0 0 0 0 0 0 0 0 0 0 0 0 0 0 0 0 0 0 0 0 0 0 0 0 0 0 0 0 0 0
0 0 0 0 0 0 0 0 0 0 0 0 0 0 0 0 0 0 0 0 0 0 0 0 0 0 0 0 0 0 0 0 0 0 0 0 0 0 0 0 0 0 0
0 0 0 0 0 0 0 0 0 0 0 0 0 0 0 0 0 0 0 0 0 0 0 0 0 0 0 0 0 0 0 0 0 0 0 0 0 0 0 0 0 0 0
0 0 0 0 0 0 0 0 0 0 -0 -0 0 0 0 0 0 0 0 0 0 0 0 0 0 0 0 0 0 0 0 0 0 0 0 0 0 0 0 0 0 0 0
0 0 0 0 0 0 0 0 0 0 -0 0 0 0 0 0 0 0 0 0 0 0 0 0 0 0 0 0 0 0 0 0 0 0 0 0 0 0 0 0 0 0 0
0 0 0 0 0 0 0 0 0 0 0 0 0 0 0 0 0 0 0 0 0 0 0 0 0 0 0 0 0 0 0 0 0 0 0 0 0 0 0 0 0 0 0
0 0 0 0 0 0 0 0 0 0 0 0 0 0 0 0 0 0 0 0 0 0 0 0 0 0 0 0 0 0 0 0 0 0 0 0 0 0 0 0 0 0 0
0 0 0 0 0 0 0 0 0 0 0 0 0 0 0 0 0 0 0 0 0 0 0 0 0 0 0 0 0 0 0 0 0 0 0 0 0 0 0 0 0 0 0
0 0 0 0 0 0 0 0 0 0 0 0 0 0 0 0 0 0 0 0 0 0 0 0 0 0 0 0 0 0 0 0 0 0 0 0 0 0 0 0 0 0 0
0 0 0 0 0 0 0 0 0 0 0 0 0 0 0 0 0 0 0 0 0 0 0 0 0 0 0 0 0 0 0 0 0 0 0 0 0 0 0 0 0 0 0
0 0 0 0 0 0 0 0 0 0 0 0 0 0 0 0 0 0 0 0 0 0 0 0 0 0 0 0 0 0 0 0 0 0 0 0 0 0 0 0 0 0 0
0 0 0 0 0 0 0 0 0 0 0 0 0 0 0 0 0 0 0 0 0 0 0 0 0 0 0 0 0 0 0 0 0 0 0 0 0 0 0 0 0 0 0
0 0 0 0 0 0 0 0 0 0 0 0 0 0 0 0 0 0 0 0 0 0 0 0 0 0 0 0 0 0 0 0 0 0 0 0 0 0 0 0 0 0 0
0 0 0 0 0 0 0 0 0 0 0 0 0 0 0 0 0 0 0 0 0 0 0 0 0 0 0 0 0 0 0 0 0 0 0 0 0 0 0 0 0 0 0
0 0 0 0 0 0 0 -0 -0 0 0 0 0 0 0 0 0 0 0 0 0 0 0 0 0 0 0 0 0 0 0 0 0 0 0 0 0 0 0 0 0 0 0
Wind_Speed
2 2 2 3 4 5 6 7 7 8 8 8 8 8 8 9 9 9 9 10 10 10 10 10 10 10 10 9 10 9 9 10 10 10 9 9 8 8 8 8 8 5 8
1 1 2 3 4 5 6 7 8 8 8 8 8 8 8 8 9 9 9 9 10 10 10 10 10 10 10 9 10 9 10 10 10 9 9 8 8 8 8 8 8 5 7
1 1 2 4 5 5 6 7 7 8 8 8 8 8 8 8 8 9 9 10 10 10 10 10 10 10 10 10 10 10 9 9 10 10 8 4 5 8 8 8 8 8 7
1 1 2 4 5 5 6 7 7 7 7 7 8 7 8 8 8 8 9 9 10 9 9 9 10 9 10 10 10 10 9 9 10 9 5 4 4 7 8 8 8 8 7
2 2 2 4 5 5 6 6 7 7 7 7 7 7 7 8 8 8 9 9 9 9 9 9 9 9 9 10 10 10 10 10 10 8 5 4 3 7 8 8 8 8 8
2 2 2 4 4 5 5 5 6 6 6 7 7 7 7 7 8 8 9 9 9 9 8 8 8 9 9 9 10 10 10 10 8 5 4 4 3 7 8 8 8 8 8
2 2 2 4 4 4 5 5 5 6 6 6 7 7 7 7 7 8 8 8 8 8 8 8 8 8 9 9 9 9 10 10 6 5 4 4 4 8 8 8 8 8 8
2 2 3 5 5 4 4 4 5 5 6 6 6 6 6 7 7 7 8 8 8 8 8 8 8 8 8 9 9 9 10 9 7 6 4 4 8 10 10 9 8 8 8
2 2 3 3 4 5 4 4 5 4 5 5 6 6 7 7 8 8 8 7 7 7 8 8 8 8 8 9 9 9 10 10 6 3 5 3 8 10 10 9 9 9 8
3 3 2 3 3 3 3 4 4 4 4 5 6 7 8 8 8 8 7 7 7 7 7 8 8 9 9 9 9 10 10 9 5 4 3 4 8 9 9 9 9 9 9
2 2 2 3 3 3 2 4 5 5 5 5 5 7 7 4 4 5 5 6 7 7 8 9 9 10 10 10 11 11 9 4 4 4 3 7 9 9 9 9 9 9 9
1 2 2 2 2 2 2 3 3 4 4 4 3 4 3 3 3 4 6 7 8 8 8 9 10 10 8 5 7 9 4 5 4 3 3 8 9 9 9 9 9 9 9
0 1 1 1 2 2 2 2 2 2 3 3 4 4 3 3 3 4 3 4 5 6 5 6 6 4 4 4 4 4 4 4 3 3 4 8 9 10 10 10 10 9 10
1 1 1 2 2 2 2 2 2 2 2 2 3 3 3 2 3 3 2 3 3 2 3 3 3 5 5 5 5 5 5 3 3 3 4 9 9 9 10 10 10 10 10
0 1 1 2 2 2 2 2 2 2 2 2 2 2 2 2 2 2 2 2 3 3 3 3 4 5 5 5 5 5 5 5 4 4 3 9 10 10 9 10 10 9 10
1 1 1 2 2 3 2 2 1 1 2 2 2 2 2 2 2 2 2 2 3 3 3 3 4 4 4 4 5 5 5 4 4 5 4 6 10 10 9 10 10 10 9
2 1 1 2 2 3 2 2 2 2 2 2 2 2 2 2 2 2 3 3 2 3 4 4 5 4 4 4 5 5 4 4 4 5 5 4 5 8 10 10 10 9 10
2 2 1 2 3 2 2 2 2 2 2 2 2 2 2 2 3 3 3 3 3 3 3 4 4 4 4 4 4 4 4 4 4 4 4 4 4 4 6 10 9 9 9
3 2 2 3 3 2 2 2 3 2 2 2 2 2 2 3 3 3 3 2 3 3 3 3 3 3 4 4 4 4 4 3 3 4 4 4 4 4 4 6 9 9 9
2 2 2 3 3 3 3 3 3 3 2 2 2 2 2 2 3 3 3 3 3 3 3 3 4 4 3 3 4 4 4 3 3 3 3 3 4 4 4 5 5 6 9
2 2 2 3 2 2 2 2 2 1 1 2 2 2 2 2 3 3 3 3 3 3 3 4 4 4 3 2 3 3 3 4 4 3 3 3 4 4 4 4 3 3 3
2 2 2 2 2 2 2 1 1 1 1 1 1 3 3 2 2 3 3 3 3 3 3 3 3 2 2 2 2 2 2 3 4 4 3 3 3 3 3 4 4 3 3
3 3 2 2 2 2 2 2 2 2 2 2 2 2 2 2 2 2 3 3 3 3 3 2 2 3 2 1 2 3 3 1 1 3 3 3 3 3 2 3 3 3 3
3 2 2 2 2 2 3 3 3 2 1 0 0 1 2 2 2 2 2 2 2 2 2 2 2 2 3 1 1 2 2 2 2 1 3 3 3 3 3 3 3 3 3
2 3 2 2 2 2 2 3 3 2 1 1 1 1 2 2 2 2 2 2 2 2 2 2 2 2 2 2 2 1 2 2 2 2 0 3 3 3 2 2 2 3 3
2 2 2 3 2 2 2 2 3 3 3 2 1 1 1 1 1 1 2 2 2 2 2 2 2 2 2 2 2 2 2 2 1 2 2 0 1 2 2 2 2 2 2
Wind_Direction
297 295 339 53 54 60 59 61 64 71 79 82 81 80 82 80 77 76 75 81 82 82 84 85 85 84 83 83 83 83 84 84 86 84 81 84 86 86 89 92 90 84 97
259 317 23 55 58 61 63 65 65 70 73 80 83 82 81 81 81 78 76 81 83 82 84 84 84 81 81 83 85 84 84 84 86 84 79 75 80 86 89 94 95 93 97
56 3 30 58 59 63 67 70 72 73 73 76 83 83 80 81 80 79 76 79 82 80 80 81 83 82 81 81 82 81 81 83 84 80 73 60 69 82 86 93 95 95 96
73 27 44 62 61 65 70 72 74 76 77 76 77 79 78 79 80 78 78 79 80 79 80 82 82 81 80 80 81 80 79 81 81 76 59 52 63 82 85 91 95 97 96
47 27 41 68 67 64 67 73 78 79 79 79 78 75 76 78 81 80 78 79 78 79 79 80 80 78 76 80 80 80 78 78 78 68 55 48 51 80 86 88 91 91 92
45 23 32 66 63 61 64 68 75 81 80 78 77 75 73 76 78 78 76 79 79 77 77 80 80 78 78 82 81 81 81 80 72 61 57 51 53 79 83 86 90 90 90
50 18 25 64 58 62 68 70 68 77 79 77 78 79 78 73 74 78 77 78 79 76 75 79 79 77 79 80 80 81 84 84 72 62 58 56 68 83 83 83 86 89 87
64 27 25 44 53 59 65 67 71 75 77 75 78 77 79 75 73 72 77 77 74 75 75 77 76 75 79 80 80 80 83 81 70 67 59 56 76 78 77 78 81 84 83
54 37 23 21 27 39 54 65 70 70 68 68 74 72 71 71 69 68 71 77 77 78 79 77 75 75 83 84 83 82 81 76 64 59 68 61 78 77 76 75 77 82 81
49 34 19 21 24 22 17 44 63 63 62 64 69 72 69 62 58 58 59 71 79 79 80 78 77 75 83 87 88 84 76 67 54 52 50 70 77 77 77 76 77 79 79
35 18 19 22 22 25 21 35 43 48 51 55 56 64 60 43 40 43 49 71 75 73 73 75 77 74 72 77 82 80 70 54 53 49 44 73 75 75 76 77 75 75 76
1 351 22 24 20 31 37 39 25 34 38 43 45 49 48 43 41 49 44 58 64 67 68 70 71 69 65 57 65 68 56 49 48 43 59 75 74 74 76 75 74 75 76
256 359 28 45 45 51 45 48 34 32 36 39 43 46 51 46 39 42 38 35 38 51 53 57 60 60 65 64 59 55 53 49 41 33 50 69 70 71 73 72 72 75 76
71 16 32 61 65 57 63 55 51 42 40 41 34 45 58 54 44 38 42 36 41 49 62 59 67 69 71 69 67 63 55 48 40 28 40 59 63 66 68 70 71 73 73
137 47 62 82 82 72 69 51 59 44 43 44 34 39 66 70 61 52 47 46 48 57 68 69 72 72 71 66 63 64 59 50 43 38 30 51 58 61 64 67 70 73 74
174 129 90 90 92 83 77 67 51 45 47 54 41 39 59 77 79 74 62 53 53 60 68 75 77 75 71 69 63 56 52 46 40 40 33 35 48 54 56 57 61 64 69
178 150 132 123 100 90 82 69 59 51 52 55 46 47 54 65 84 90 78 64 59 69 77 79 73 71 74 69 59 51 48 43 41 38 35 31 31 43 50 55 55 57 61
156 136 125 121 105 95 85 74 64 56 56 51 46 50 56 68 89 90 79 69 69 73 79 85 79 74 67 66 60 45 42 41 40 40 42 39 35 31 39 50 51 52 57
159 140 114 96 100 96 90 77 67 57 47 38 45 47 52 67 83 92 84 76 78 77 72 87 75 79 81 75 72 54 40 40 32 46 46 42 37 33 30 36 43 47 51
137 126 120 101 95 91 82 70 55 47 35 36 40 44 62 77 86 91 90 82 83 85 73 77 83 70 76 80 80 63 44 37 33 40 40 39 36 36 36 37 33 33 42
113 122 134 122 117 108 89 85 75 45 15 21 28 41 58 80 96 99 100 90 87 92 95 95 92 81 68 70 77 53 31 38 42 35 35 38 34 32 35 36 36 30 25
151 149 142 144 143 141 128 117 114 111 63 18 16 38 47 67 93 111 114 119 111 104 94 91 96 96 68 54 95 87 32 8 16 28 29 36 30 28 36 40 42 38 29
174 175 171 169 161 139 120 98 79 58 41 28 24 22 21 49 68 89 110 121 124 120 124 118 111 113 115 48 62 119 126 190 337 0 19 26 23 25 26 32 40 33 31
194 171 162 160 151 134 127 125 123 123 118 243 353 15 26 47 58 72 96 113 119 117 128 138 124 123 124 117 57 60 108 148 137 10 352 7 20 28 35 38 35 30 30
173 164 163 147 142 138 137 137 130 128 140 105 65 58 43 38 52 73 92 107 113 115 127 117 110 117 127 134 133 113 85 70 97 131 24 344 3 10 24 32 35 29 26
151 152 153 147 157 158 153 147 150 153 146 122 106 84 37 27 34 62 99 105 115 120 126 123 116 120 122 120 118 120 138 143 152 133 138 359 356 343 10 25 33 26 23